Flag for U.S.A. Weather past 2 weeks in Wichita Falls, Texas, U.S.A.

Now
76 °F

Scattered clouds.


Feels Like: 78 °F
Forecast: 61 / 72 °F
Wind: 15 mph from South

Location: Wichita Falls - Sheppard Air Force Base


UV Index: 0 (Low)

Visibility: 10 mi


Pressure: 30.03 "Hg

Humidity: 40%

Dew point: 50 °F

Location of Wichita FallsLocation

Historic Weather in Wichita Falls

°F

Wichita Falls temperature yesterday

Maximum temperature yesterday: 72 °F (at 5:52 PM)
Minimum temperature yesterday: 49 °F (at 6:52 AM)
Average temperature yesterday: 60 °F

Past Weeks' High & Low Weather Summary

 TemperatureHumidityPressure
High91 °F (Apr 10, 3:52 PM)97% (Apr 6, 9:52 AM)30.32 "Hg (Apr 6, 9:52 AM)
Low33 °F (Apr 15, 5:52 AM)6% (Apr 13, 5:52 PM)29.41 "Hg (Apr 13, 5:52 PM)
Average60 °F55%29.96 "Hg
* Reported Apr 4 5:52 PM — Apr 19 5:52 PM, Wichita Falls, Weather by CustomWeather, © 2014

Note: Actual official high and low records may vary slightly from our data, if they occured in-between our weather recording intervals... More about our weather records

Advertising

Historic Weather Conditions — Data for Previous 24 hours

 ConditionsComfort  
Time TempWeatherWind HumidityBarometerVisibility
5:52 PM
Apr 19
79 °FSunny.15 mph36%30.02 "Hg10 mi
4:52 PM77 °FSunny.13 mph39%30.02 "Hg10 mi
3:52 PM76 °FPassing clouds.14 mph40%30.05 "Hg10 mi
2:52 PM77 °FPassing clouds.12 mph40%30.07 "Hg10 mi
1:52 PM77 °FPartly sunny.14 mph40%30.08 "Hg10 mi
12:52 PM76 °FPassing clouds.10 mph42%30.09 "Hg10 mi
11:52 AM73 °FPartly sunny.14 mph44%30.11 "Hg10 mi
10:52 AM72 °FPartly sunny.14 mph48%30.13 "Hg10 mi
9:52 AM69 °FSunny.15 mph49%30.14 "Hg10 mi
8:52 AM63 °FSunny.13 mph60%30.13 "Hg10 mi
7:52 AM55 °FClear.7 mph83%30.12 "Hg8 mi
6:52 AM52 °FClear.9 mph86%30.11 "Hg9 mi
5:52 AM52 °FClear.8 mph86%30.10 "Hg9 mi
4:52 AM52 °FClear.7 mph83%30.09 "Hg10 mi
3:52 AM52 °FClear.8 mph83%30.08 "Hg10 mi
2:52 AM54 °FClear.7 mph80%30.09 "Hg10 mi
1:52 AM54 °FClear.7 mph83%30.11 "Hg10 mi
12:52 AM56 °FClear.6 mph81%30.11 "Hg10 mi
11:52 PM
Apr 18
57 °FClear.7 mph78%30.11 "Hg10 mi
10:52 PM58 °FClear.8 mph78%30.11 "Hg10 mi
9:52 PM59 °FClear.8 mph72%30.10 "Hg10 mi
8:52 PM63 °FPassing clouds.7 mph63%30.09 "Hg10 mi
7:52 PM65 °FScattered clouds.6 mph61%30.09 "Hg10 mi
Weather by CustomWeather, © 2014

See weather overview